[[{"header":{"parameterUnit":"m.s-1","parameterCategory":1,"la1":30.2991,"la2":30.254,"lo1":-89.0895,"lo2":-89.0444,"dy":0.0017,"dx":0.0017,"nx":28,"ny":28,"refTime":"2024-11-27T03:00:00:Z","depth":0,"parameterNumber":2,"parameterNumberName":"U-component_of_WINDS"},"data":[0,0,0,0,0,0,0,0,0,0,0,0,0,0,0,0,0,0,0,0,0,0,0,0,0,0,0,0,0,0,0,0,0,0,0,0,0,0,0,0,0,0,0,0,0,0,0,0,0,0,0,0,0,0,0,0,0,0,0.5106,0.5107,0,0.517,0.5171,0.5172,0.5203,0.5203,0.5203,0.5203,0.5271,0.5273,0.5274,0,0,0,0,0,0,0,0,0,0,0,0,0,0.5016,0.5017,0.5106,0.5107,0.5107,0.517,0.5171,0.5172,0.5203,0.5203,0.5203,0.5203,0.527,0.5272,0.5275,0,0,0,0,0,0,0,0,0,0,0,0,0,0.5065,0.5018,0.5106,0.513,0.5133,0.517,0.5171,0.5172,0.5203,0.5203,0.5203,0.5202,0.527,0.5272,0.5275,0.5293,0,0,0.5283,0.5285,0,0,0,0,0,0,0,0,0.5062,0.5068,0.5126,0.5129,0.5132,0.5178,0.5164,0.5213,0.5203,0.5176,0.5203,0.5202,0.524,0.5245,0.5258,0.5296,0.5299,0.5284,0.5285,0.5287,0.5287,0,0,0,0,0,0,0,0.5059,0.5066,0.5131,0.5127,0.513,0.514,0.5147,0.5174,0.5208,0.5179,0.5181,0.5188,0.5242,0.5255,0.526,0.53,0.5284,0.5286,0.5288,0.5289,0.5363,0.5364,0,0,0,0,0,0,0.5051,0.5063,0.5129,0.5133,0.5096,0.5142,0.515,0.5163,0.5208,0.5214,0.5188,0.5189,0.525,0.5256,0.5262,0.529,0.5286,0.5289,0.5291,0.5363,0.5363,0.5364,0,0,0,0,0,0,0.5049,0.5056,0.5127,0.5099,0.5108,0.5143,0.5159,0.5165,0.5178,0.5215,0.5221,0.5195,0.525,0.5258,0.5286,0.5292,0.529,0.5293,0.5363,0.5363,0.5363,0.5343,0,0,0,0,0,0,0.5046,0.5055,0.506,0.5099,0.511,0.5148,0.5159,0.5166,0.5182,0.5184,0.5223,0.5229,0.5251,0.5282,0.5289,0.5296,0.5295,0.5362,0.5363,0.5363,0.5343,0.5342,0.5342,0,0,0,0,0,0.5042,0.5051,0.5061,0.5068,0.5117,0.5148,0.5154,0.5179,0.5182,0.519,0.5214,0.5228,0.5291,0.5285,0.5293,0.5301,0.5362,0.5363,0.5363,0.5343,0.5342,0.5342,0,0,0,0,0,0,0.5013,0.5057,0.5067,0.5088,0.5114,0.5153,0.5162,0.5176,0.5202,0.5203,0.5234,0.5242,0.5269,0.5288,0.528,0.5324,0.5328,0.533,0.531,0.5309,0.5309,0.5304,0.5297,0,0,0,0,0,0.5009,0.5028,0.5067,0.5082,0.5094,0.5126,0.514,0.5158,0.5186,0.5197,0.5223,0.5252,0.5279,0.5295,0.5321,0.5347,0.5358,0.5357,0.5356,0.5355,0.5357,0.5377,0.5378,0.5366,0.5366,0.5366,0,0,0.5,0.5027,0.5037,0.5077,0.5098,0.5121,0.5135,0.5157,0.5175,0.52,0.5229,0.525,0.5284,0.5312,0.5326,0.5329,0.5364,0.5356,0.5355,0.5358,0.5378,0.5379,0.538,0.5366,0.5366,0.5366,0,0,0.4996,0.5017,0.5034,0.5057,0.5091,0.5113,0.5117,0.5155,0.517,0.5199,0.5221,0.5244,0.5288,0.5313,0.5331,0.5343,0.5358,0.5351,0.5348,0.5367,0.5368,0.5369,0.5377,0.5379,0.5353,0.5353,0.5353,0,0.4982,0.5014,0.5041,0.5063,0.5082,0.5107,0.5127,0.5148,0.5189,0.5202,0.5205,0.5265,0.5289,0.5326,0.5329,0.5342,0.5351,0.5346,0.5366,0.5367,0.5369,0.5376,0.5379,0.5352,0.5352,0.5352,0.5352,0,0.4997,0.502,0.503,0.5069,0.5089,0.511,0.5142,0.516,0.5177,0.52,0.5233,0.5264,0.5299,0.5309,0.5325,0.535,0.5351,0.5359,0.5364,0.5368,0.5376,0.5379,0.5351,0.5351,0.5351,0.5351,0,0,0.4972,0.503,0.5033,0.5054,0.5095,0.5115,0.5139,0.5174,0.519,0.5219,0.5242,0.5282,0.5292,0.5313,0.5333,0.5349,0.5362,0.5357,0.5358,0.5359,0.5397,0.5391,0.5393,0.5373,0.5374,0.5374,0.5395,0,0.4975,0.5018,0.5045,0.5078,0.5102,0.513,0.5152,0.5182,0.5205,0.5231,0.5258,0.5287,0.5296,0.531,0.5328,0.5357,0.5371,0.5356,0.5398,0.5399,0.5389,0.5397,0.5389,0.5407,0.5398,0.5398,0.5398,0,0.4983,0.5013,0.5048,0.5092,0.5103,0.5122,0.5159,0.5183,0.5219,0.5236,0.5262,0.5284,0.5314,0.5318,0.5363,0.5352,0.5372,0.539,0.5391,0.5397,0.5399,0.5404,0.5413,0.5416,0.5403,0.5403,0.5402,0,0.4965,0.5014,0.5042,0.5059,0.511,0.5123,0.5145,0.5182,0.5203,0.5236,0.5251,0.5288,0.5308,0.5338,0.537,0.5369,0.5414,0.5419,0.5431,0.5431,0.5439,0.5438,0.5452,0.5449,0.5449,0.5449,0.5449,0,0.4966,0.4987,0.5035,0.5052,0.5079,0.5112,0.5138,0.5163,0.5197,0.5223,0.525,0.5274,0.5314,0.5345,0.5371,0.5407,0.5416,0.5432,0.5439,0.543,0.5429,0.5444,0.5444,0.545,0.545,0.545,0.545,0,0.4948,0.4981,0.5015,0.5062,0.5075,0.5092,0.5134,0.5155,0.5182,0.5214,0.5224,0.5267,0.5305,0.5341,0.5391,0.5409,0.5446,0.5454,0.5433,0.5437,0.5449,0.5448,0.5474,0.5481,0.5472,0.5472,0.5472,0,0.4947,0.4964,0.5014,0.5033,0.5055,0.5085,0.5108,0.5143,0.5166,0.5213,0.5229,0.5269,0.5302,0.5363,0.54,0.544,0.5451,0.5458,0.5457,0.545,0.5454,0.5453,0.5457,0.5457,0.5456,0.5456,0.5456,0,0.4942,0.4958,0.4988,0.5026,0.5053,0.5084,0.5117,0.5132,0.5175,0.52,0.5239,0.5266,0.5319,0.536,0.5406,0.5433,0.5453,0.5457,0.5462,0.5454,0.5442,0.5452,0.5434,0.5456,0.5456,0.5456,0.5456,0.5456,0.4933,0.4952,0.4991,0.5026,0.5055,0.5087,0.5109,0.5141,0.5174,0.5219,0.524,0.5281,0.5324,0.5387,0.5414,0.5449,0.5454,0.5461,0.5463,0.5465,0.5464,0.5436,0.5458,0.5458,0.5458,0.5458,0.5458,0,0.4931,0.4959,0.4991,0.5037,0.5066,0.5083,0.5122,0.5146,0.5181,0.5218,0.5252,0.5301,0.5343,0.5385,0.5431,0.5451,0.5462,0.5462,0.5461,0.5468,0.5456,0.5448,0.5452,0.5452,0.5452,0.5452,0.5452,0.5452,0.4934,0.4967,0.499,0.504,0.5069,0.5108,0.513,0.5161,0.5192,0.5244,0.5279,0.5307,0.5349,0.5398,0.5439,0.5451,0.5468,0.5465,0.548,0.5468,0.5468,0.5468,0.5461,0.5468,0.5468,0.5489,0.549,0.549]},{"header":{"parameterUnit":"m.s-1","parameterCategory":1,"la1":30.2991,"la2":30.254,"lo1":-89.0895,"lo2":-89.0444,"dy":0.0017,"dx":0.0017,"nx":28,"ny":28,"refTime":"2024-11-27T03:00:00:Z","depth":0,"parameterNumber":3,"parameterNumberName":"V-component_of_WINDS"},"data":[0,0,0,0,0,0,0,0,0,0,0,0,0,0,0,0,0,0,0,0,0,0,0,0,0,0,0,0,0,0,0,0,0,0,0,0,0,0,0,0,0,0,0,0,0,0,0,0,0,0,0,0,0,0,0,0,0,0,-6.805,-6.805,0,-6.8014,-6.8013,-6.8013,-6.7924,-6.7923,-6.7921,-6.7919,-6.788,-6.7881,-6.7882,0,0,0,0,0,0,0,0,0,0,0,0,0,-6.804,-6.804,-6.805,-6.805,-6.8049,-6.8014,-6.8013,-6.8013,-6.7925,-6.7922,-6.792,-6.7918,-6.788,-6.7881,-6.7882,0,0,0,0,0,0,0,0,0,0,0,0,0,-6.8028,-6.804,-6.805,-6.8001,-6.7996,-6.8014,-6.8013,-6.8013,-6.7925,-6.7922,-6.792,-6.7917,-6.788,-6.7881,-6.7882,-6.7944,0,0,-6.7885,-6.7886,0,0,0,0,0,0,0,0,-6.8029,-6.8028,-6.8009,-6.8004,-6.7999,-6.7971,-6.7995,-6.799,-6.7926,-6.7952,-6.7919,-6.7916,-6.7913,-6.7911,-6.791,-6.7942,-6.7941,-6.7885,-6.7886,-6.7886,-6.7887,0,0,0,0,0,0,0,-6.803,-6.8029,-6.8036,-6.8008,-6.8003,-6.798,-6.7975,-6.7994,-6.7948,-6.795,-6.7943,-6.794,-6.7909,-6.7909,-6.7909,-6.794,-6.7885,-6.7886,-6.7887,-6.7887,-6.8017,-6.802,0,0,0,0,0,0,-6.8038,-6.8031,-6.8037,-6.8035,-6.8007,-6.7982,-6.7977,-6.7983,-6.7948,-6.794,-6.7943,-6.7936,-6.7909,-6.7907,-6.7907,-6.7974,-6.7886,-6.7887,-6.7888,-6.8014,-6.8018,-6.8021,0,0,0,0,0,0,-6.8038,-6.8039,-6.8038,-6.8031,-6.8029,-6.7985,-6.7993,-6.7983,-6.7983,-6.7943,-6.7934,-6.7951,-6.7907,-6.7905,-6.7935,-6.7972,-6.7888,-6.7889,-6.8011,-6.8015,-6.8019,-6.8111,0,0,0,0,0,0,-6.8038,-6.804,-6.8064,-6.8032,-6.803,-6.8068,-6.7995,-6.7985,-6.7985,-6.7977,-6.7948,-6.7941,-6.7904,-6.7934,-6.7936,-6.7971,-6.789,-6.8007,-6.8013,-6.8018,-6.8105,-6.8118,-6.813,0,0,0,0,0,-6.8038,-6.8092,-6.8066,-6.8067,-6.8059,-6.8071,-6.8069,-6.8026,-6.7989,-6.8012,-6.7985,-6.7942,-6.7968,-6.7937,-6.7939,-6.7976,-6.8005,-6.8011,-6.8017,-6.8099,-6.8116,-6.8129,0,0,0,0,0,0,-6.813,-6.8087,-6.8057,-6.8103,-6.8091,-6.8056,-6.8083,-6.8046,-6.8044,-6.8036,-6.7983,-6.7977,-6.8013,-6.7997,-6.7964,-6.8032,-6.7979,-6.7986,-6.804,-6.8056,-6.8068,-6.807,-6.7891,0,0,0,0,0,-6.8155,-6.8169,-6.8131,-6.8174,-6.817,-6.8128,-6.8131,-6.8099,-6.8085,-6.8079,-6.8055,-6.8041,-6.8046,-6.805,-6.8053,-6.8103,-6.8093,-6.8128,-6.8141,-6.8151,-6.8157,-6.8178,-6.8192,-6.8041,-6.8041,-6.8041,0,0,-6.8208,-6.8187,-6.8199,-6.8192,-6.8179,-6.8193,-6.8124,-6.8143,-6.8151,-6.8082,-6.8107,-6.8089,-6.807,-6.8109,-6.8125,-6.8097,-6.8197,-6.8159,-6.8168,-6.8168,-6.8186,-6.8201,-6.8213,-6.8046,-6.8045,-6.8044,0,0,-6.8311,-6.8298,-6.833,-6.8318,-6.8299,-6.827,-6.8279,-6.8248,-6.8233,-6.8258,-6.8205,-6.8214,-6.8225,-6.8212,-6.8207,-6.8303,-6.8261,-6.8305,-6.8369,-6.8391,-6.8402,-6.8413,-6.8443,-6.8455,-6.8312,-6.8312,-6.8312,0,-6.8379,-6.8398,-6.8352,-6.8373,-6.837,-6.8308,-6.8339,-6.833,-6.8313,-6.8311,-6.8281,-6.829,-6.8273,-6.8306,-6.8329,-6.8329,-6.8334,-6.8307,-6.8405,-6.8414,-6.8423,-6.8452,-6.8464,-6.8317,-6.8316,-6.8316,-6.8315,0,-6.8481,-6.8495,-6.8524,-6.8507,-6.8508,-6.8535,-6.8491,-6.8498,-6.8465,-6.8439,-6.8463,-6.8441,-6.8436,-6.8442,-6.8411,-6.847,-6.8452,-6.8415,-6.836,-6.8444,-6.8469,-6.848,-6.8325,-6.8323,-6.8321,-6.832,0,0,-6.864,-6.8597,-6.8608,-6.8599,-6.8572,-6.8581,-6.8603,-6.8598,-6.8603,-6.8593,-6.8608,-6.8617,-6.8581,-6.8575,-6.8542,-6.8561,-6.8634,-6.852,-6.8519,-6.8539,-6.8693,-6.8719,-6.8733,-6.8607,-6.8609,-6.861,-6.8693,0,-6.8734,-6.877,-6.8728,-6.8772,-6.8783,-6.8722,-6.8741,-6.8726,-6.8702,-6.8706,-6.8679,-6.8685,-6.8638,-6.8634,-6.865,-6.8622,-6.8663,-6.8615,-6.8618,-6.8618,-6.8622,-6.8747,-6.8776,-6.8856,-6.8703,-6.8705,-6.8706,0,-6.8849,-6.8843,-6.8888,-6.8855,-6.8858,-6.8876,-6.8865,-6.8871,-6.8852,-6.8832,-6.8825,-6.8785,-6.8802,-6.8751,-6.8772,-6.874,-6.8738,-6.8724,-6.8726,-6.8723,-6.8666,-6.8744,-6.888,-6.8891,-6.8722,-6.8721,-6.872,0,-6.8956,-6.896,-6.8986,-6.898,-6.8944,-6.8957,-6.8942,-6.892,-6.8918,-6.891,-6.8908,-6.8902,-6.8898,-6.8893,-6.8851,-6.8818,-6.8876,-6.8822,-6.8858,-6.8859,-6.8871,-6.887,-6.9006,-6.8875,-6.8875,-6.8875,-6.8875,0,-6.9064,-6.9093,-6.9033,-6.905,-6.9079,-6.903,-6.9061,-6.904,-6.902,-6.9029,-6.8977,-6.8987,-6.8932,-6.8935,-6.8903,-6.8923,-6.8923,-6.8905,-6.8896,-6.8909,-6.891,-6.8905,-6.8897,-6.8878,-6.8877,-6.8877,-6.8876,0,-6.9189,-6.9151,-6.9174,-6.9137,-6.9129,-6.9152,-6.9119,-6.9131,-6.9103,-6.9115,-6.9115,-6.9071,-6.9072,-6.903,-6.9022,-6.9,-6.9033,-6.9015,-6.904,-6.9033,-6.907,-6.9066,-6.9205,-6.9219,-6.9083,-6.9084,-6.9085,0,-6.9259,-6.9279,-6.9244,-6.9246,-6.9234,-6.9239,-6.9237,-6.9189,-6.9188,-6.9166,-6.918,-6.9176,-6.9171,-6.9174,-6.914,-6.9133,-6.9112,-6.9161,-6.9111,-6.9122,-6.9109,-6.9107,-6.9107,-6.9171,-6.9173,-6.9175,-6.9176,0,-6.9386,-6.9365,-6.9364,-6.9356,-6.9355,-6.9346,-6.9334,-6.9339,-6.9286,-6.9288,-6.9287,-6.9283,-6.9274,-6.927,-6.9256,-6.9239,-6.9197,-6.9192,-6.9199,-6.9211,-6.9223,-6.9213,-6.9065,-6.9189,-6.9187,-6.9186,-6.9186,-6.9185,-6.9483,-6.9497,-6.9473,-6.9473,-6.9459,-6.9448,-6.9456,-6.9429,-6.9428,-6.9417,-6.9389,-6.9392,-6.9369,-6.9346,-6.9332,-6.9333,-6.9308,-6.932,-6.9322,-6.9325,-6.933,-6.9225,-6.933,-6.933,-6.933,-6.9329,-6.9329,0,-6.9604,-6.9585,-6.9586,-6.9569,-6.9569,-6.9531,-6.9515,-6.9516,-6.952,-6.9502,-6.9497,-6.9495,-6.949,-6.9455,-6.9445,-6.9452,-6.9433,-6.9451,-6.9449,-6.9444,-6.9355,-6.9348,-6.9467,-6.9467,-6.9467,-6.9467,-6.9467,-6.9467,-6.9667,-6.9687,-6.9664,-6.9675,-6.9656,-6.9659,-6.9653,-6.9642,-6.9626,-6.9627,-6.9622,-6.96,-6.9574,-6.9561,-6.9554,-6.9544,-6.9541,-6.9565,-6.9548,-6.9465,-6.9451,-6.9439,-6.9432,-6.9566,-6.9566,-6.9637,-6.9638,-6.9638]}]]